Location: Lipsett
(52.7836°N, 104.6863°W)
Time: 22:01:33
(UTC+00:00)

X-37B - Pass Details

Date: 23 August 2022
Orbit: 330 x 340 km, 45.0° (Epoch: 02 September)

Event Time Altitude Azimuth Distance (km) Brightness Sun altitude
Rises 03:38:17 0° 226° (SW) 2,094 4.4 -12.5°
Reaches altitude 10° 03:40:58 10° 197° (SSW) 1,263 3.0 -12.8°
Enters shadow 03:41:27 12° 188° (S) 1,170 2.7 -12.9°
